Regional Weather Roundup
Issued by NWS Midland/Odessa, TX

Skip options and go directly to product.
Home | Oldest Version | Previous Version | Current Version | All | Graphics & Text | Save Text | Print | Product List | Glossary On

Skip product version selection by date and time.   
730
ASUS44 KMAF 271201
RWRMAF
MIDLAND AREA WEATHER ROUNDUP
NATIONAL WEATHER SERVICE MIDLAND TX
700 AM CDT FRI MAR 27 2015

...IN SOUTHWEST TEXAS AND SOUTHEAST NEW MEXICO...

CITY           SKY/WX    TMP DP  RH WIND       PRES   REMARKS
ALPINE         CLEAR     43  31  62 SW9       30.31S WCI  37
ANDREWS        FAIR      45  29  54 W9        30.20S WCI  40
ARTESIA        CLEAR     39  27  60 CALM      30.20R
BIG SPRING     CLEAR     41  31  67 S7        30.21R WCI  36
CARLSBAD       CLEAR     36  30  79 CALM      30.17R
DRYDEN           N/A     48  36  63 W8        30.21S
FORT STOCKTON  CLEAR     43  33  68 SW12      30.21R WCI  37
GUAD PASS      PTCLDY    45  26  47 W16       30.27R WCI  38
HOBBS          CLEAR     37  25  60 SW7       30.20S WCI  32
MARFA          CLEAR     28  25  86 N7        30.30R WCI  21
MIDLAND AIRPK  CLEAR     45  32  60 W9        30.21R
MIDLAND INTL   CLEAR     41  33  73 MISG      30.20R
ODESSA         CLEAR     40  31  70 W8        30.21R WCI  34
PECOS          CLEAR     36  33  88 S3        30.20S
PRESIDIO       FAIR      50  35  56 N9        30.25S
SEMINOLE       CLEAR     42  27  56 W10       30.19F WCI  35
SNYDER         CLEAR     41  29  63 SW7       30.18R WCI  36
WINK           CLEAR     38  31  76 E5        30.18F WCI  34
$$
...OTHER STATIONS IN TEXAS...

CITY           SKY/WX    TMP DP  RH WIND       PRES   REMARKS
ABILENE        CLEAR     49  28  44 SW5       30.15R
AMARILLO       CLEAR     44  22  41 NE6       30.18R
AUSTIN         CLEAR     43  37  79 SW6       30.18R WCI  39
BROWNSVILLE    PTCLDY    54  50  86 NW6       30.21R
CORPUS CHRISTI PTCLDY    49  45  86 W5        30.20R
DALLAS FTW     PTCLDY    45  36  70 SW7       30.10R
DEL RIO        CLEAR     44  40  85 CALM      30.21S
EL PASO        PTCLDY    49  29  46 CALM      30.24R
HOUSTON INT    CLEAR     46  41  82 W5        30.14R
LUBBOCK        PTCLDY    36  23  59 W6        30.16R WCI  31
SAN ANGELO     CLEAR     41  31  67 W7        30.18R WCI  36
SAN ANTONIO    CLEAR     46  35  65 CALM      30.19S
WACO           CLEAR     40  37  89 SW8       30.14R WCI  34
WICHITA FALLS  NOT AVBL
$$
...OTHER LOCATIONS IN NEW MEXICO...

CITY           SKY/WX    TMP DP  RH WIND       PRES   REMARKS
ALAMAGORDO     PTCLDY    43  19  39 CALM      30.26R
ALBUQUERQUE    CLEAR     45  20  36 CALM      30.28R
CANNON AFB     NOT AVBL
CLOVIS         PTCLDY    37  23  56 W7        30.16S WCI  32
HOLLOMAN AFB   NOT AVBL
ROSWELL        CLEAR     36  28  73 N5        30.19R WCI  32
RUIDOSO        CLEAR     45  16  31 W3        30.30R
SANTA FE       CLEAR     35  18  49 N12       30.26S WCI  27
TRUTH OR CONSE CLEAR     49  16  26 NW6       30.25S
TUCUMCARI      CLEAR     38  25  59 NW6       30.16R WCI  33
$$

USA.gov is the U.S. government's official web portal to all federal, state and local government web resources and services.